METEOR 2-11

Satellite information

Favourite Embed

Satellite Type and Status

PAYLOADIN ORBIT

Key statistics

Satellite METEOR 2-11 at a glance.

Uptime

14915

Days in orbit

Revolutions

≈ 13.9

Per day

Orbit

LEO

Low Earth Orbit

Inclination

82.5

Latest

Satellite identification and parameters

Extended collection of information and parameters for METEOR 2-11.

Object identification

Identified? True

Debris? False

Object name: METEOR 2-11

International designator: 1984-072A

Object number (NORAD): 15099

Object ID (CCSDS): 15099

Country: COMMONWEALTH OF INDEPENDENT STATES (CIS)

Current information (Y/N): Y

RCS size: LARGE

Orbital parameters

Period: 103.952 minutes

Inclination: 82.5333 deg

SMA: 7323.43 km

Apoapsis: 955.356 km

Periapsis: 935.233 km

RAAN: 4.7446 deg

Eccentricy: 0.0013739

Argument of periapsis: 152.313 deg

Mean anomaly: 207.8765 deg

Mean motion: 13.85259013 rev/day

Mean motion (dot): 0.00000098 rev/day2

B* drag term: 0.000072877 1/REarth

Two-line elements (TLE)

Creation date: May 5, 2025, 2:11 a.m.

Reference frame: TEME

Reference center: EARTH

Epoch: May 4, 2025, 10:59 p.m. UTC

TLE line 0: 0 METEOR 2-11

TLE line 1: 1 15099U 84072A 25124.95811500 .00000098 00000-0 72877-4 0 9990

TLE line 2: 2 15099 82.5333 4.7446 0013739 152.3130 207.8765 13.85259013 63824

Live tracking on map

Real-time ground track for satellite METEOR 2-11.

In-orbit conjunctions

A list of the most updated potential collisions computed for object METEOR 2-11.

Target Orbit TCA Probability of collision Miss distance Type
FENGYUN 1C DEB SSO 2025-02-18 19:40:01 0.0001463054 54.0 (m) DEBRIS
FENGYUN 1C DEB SSO 2025-01-08 19:06:14 0.0001367065 746.0 (m) DEBRIS
SL-16 DEB LEO 2024-11-27 09:01:21 0.0001864615 553.0 (m) DEBRIS
FENGYUN 1C DEB SSO 2024-06-30 09:45:02 0.000150338 817.0 (m) DEBRIS

Associated space launch

Second generation soviet meteorological satellite

METEOR 2-11 was lifted into orbit during the mission ‘Tsiklon-3 | Meteor-2 11’, on board a Tsiklon-3 space rocket.

The launch took place on July 5, 1984, 3:35 a.m. from 32/2.

For more information about the launch, click the button.

Launch to space Tsiklon-3 | Meteor-2 11
Tsiklon-3 | Meteor-2 11

Agency: N/A

Status: Launch Successful

Launch date: July 5, 1984, 3:35 a.m. UTC

Rocket: Tsiklon-3

Launch pad: 32/2

Location: Plesetsk Cosmodrome, Russian Federation

...

Latest news about this satellite

There are no fresh news available about this satellite. Check back as we update our databases every day.


Newsletter sign-up

Weekly statistics, charts and insights to help you stay on top of the space industry.